Regional Weather Roundup
Issued by NWS

Home | Current Version | Previous Version | Graphics & Text | Print | Product List | Glossary On
Versions: 1 2 3 4 5 6 7 8 9 10 11 12 13 14 15 16 17 18 19 20 21 22 23 24 25 26 27 28 29 30 31 32 33 34 35 36 37 38 39 40 41 42 43 44 45 46 47 48 49 50
000
ASUS43 KBIS 041402
RWRND

NORTH DAKOTA REGIONAL WEATHER ROUNDUP
NATIONAL WEATHER SERVICE BISMARCK ND
800 AM CST SUN DEC 04 2016

NOTE: "FAIR" INDICATES FEW OR NO CLOUDS BELOW 12,000 FEET WITH NO
SIGNIFICANT WEATHER AND/OR OBSTRUCTIONS TO VISIBILITY.


NDZ001>003-009>011-017-041500-
NORTHWEST NORTH DAKOTA

CITY           SKY/WX    TMP DP  RH WIND       PRES   REMARKS
WILLISTON      CLEAR     19  15  84 SW8       29.76S WCI   9
MINOT          PTCLDY    27  23  85 W14       29.69F WCI  16
MINOT AFB      CLEAR     24  21  89 W14       29.69R WCI  12
$$

NDZ018>021-031>035-040>046-041500-
SOUTHWEST NORTH DAKOTA

CITY           SKY/WX    TMP DP  RH WIND       PRES   REMARKS
BISMARCK       CLOUDY    32  29  88 W7        29.76S
DICKINSON      CLEAR     21  16  81 W10       29.74F WCI  10
GARRISON         N/A     31  28  89 W14G22    29.71S
HETTINGER ARPT CLEAR     19  14  81 NW8       29.81S WCI   9
$$

NDZ004>008-012>016-024-026-027-054-041500-
NORTHEAST NORTH DAKOTA

CITY           SKY/WX    TMP DP  RH WIND       PRES   REMARKS
GRAND FORKS    CLOUDY    34  32  92 S12       29.70F
GRND FRKS AFB  CLOUDY    33  32  96 SW10      29.69F
DEVILS LAKE    FLURRIES  26  24  92 W13       29.68S WCI  15
$$

NDZ022-023-025-028>030-036>039-047>053-041500-
SOUTHEAST NORTH DAKOTA

CITY           SKY/WX    TMP DP  RH WIND       PRES   REMARKS
FARGO          LGT SNOW  34  32  92 S13       29.74F FOG
JAMESTOWN      CLOUDY    34  31  88 W10       29.70S
$$




USA.gov is the U.S. government's official web portal to all federal, state and local government web resources and services.